User: anonymous   Login
Location: ?????
(31.7405°N, 35.1927°E)
Time: 06:45:33
(UTC+00:00)
Language:

BREEZE-M DEB (TANK) - Orbit

View from above orbital plane
View from above orbital plane
View from above satellite
View from above satellite

Ground track
Ground track

The orbit data is extracted from the following two-line orbital elements,

1 42751U 17032C   20152.58019494 +.00001320 +00000-0 +24061-3 0  9994
2 42751 049.7202 324.5112 4643331 180.1863 179.6808 06.20812910067465
Epoch (UTC): 31 May 2020 13:55:28
Eccentricity: 0.4643331
inclination: 49.7202°
perigee height: 320 km
apogee height: 11934 km
right ascension of ascending node: 324.5112°
argument of perigee: 180.1863°
revolutions per day: 6.20812910
mean anomaly at epoch: 179.6808°
orbit number at epoch: 6746

The dashed part of the orbit path shows where the satellite is in the earth's shadow,  

DLR